Date String (YYYY-MM-DD hh:mm:ss) UTC,Instrument flags,Ambient pressure (hPa),Sample flow (lpm),Bypass flow (lpm),Sample temperature (°C),Ambient temperature (°C),ASC tube jacket temperature (°C),LED temperature (°C),Box temperature (°C),Sample RH (%),Span deviation,Mass concentration (μg/m³),Mass concentration (μg/m³),Mass concentration (μg/m³)
DateTimeUTC,F1_M11,P_M11,Q1_M11,Q2_M11,T1_M11,T2_M11,T3_M11,T4_M11,T5_M11,U1_M11,ZSPAN_M11,X0_M11,X2_M11,X1_M11
2023-01-12 10:00:00,,0832.1,5.01,0.00,22.4,20.9,00.0,31.4,24.2,17.4,-002.6,0014.82,0010.30,0010.18
2023-01-12 10:01:00,,0832.2,5.01,0.00,22.4,20.9,00.0,31.4,24.1,17.4,-002.7,0015.46,0010.62,0010.49
2023-01-12 10:02:00,,0832.1,5.00,0.00,22.4,20.8,00.0,31.4,24.1,17.4,-002.8,0016.12,0010.99,0010.85
2023-01-12 10:03:00,,0832.1,4.99,0.00,22.4,20.8,00.0,31.3,24.1,17.4,-002.9,0016.65,0011.29,0011.14
2023-01-12 10:04:00,,0832.1,4.99,0.00,22.3,20.8,00.0,31.3,24.0,17.5,-003.0,0017.22,0011.61,0011.45
2023-01-12 10:05:00,,0832.1,4.99,0.00,22.3,20.7,00.0,31.3,24.0,17.5,-002.9,0017.60,0011.81,0011.65
2023-01-12 10:06:00,,0832.1,5.00,0.00,22.3,20.9,00.0,31.3,24.1,17.4,-002.8,0018.17,0012.13,0011.93
2023-01-12 10:07:00,,0832.1,5.02,0.00,22.4,21.8,00.0,31.2,24.3,17.3,-002.8,0018.94,0012.57,0012.36
2023-01-12 10:08:00,,0832.1,4.99,0.00,22.5,22.7,00.0,31.2,24.5,17.0,-002.8,0019.55,0012.92,0012.72
2023-01-12 10:09:00,,0832.1,4.99,0.00,22.6,22.9,00.0,31.3,24.7,17.0,-002.8,0020.03,0013.19,0012.97
2023-01-12 10:10:00,,0832.1,5.01,0.00,22.6,22.5,00.0,31.3,24.6,17.1,-002.7,0020.43,0013.43,0013.20
2023-01-12 10:11:00,,0832.1,4.99,0.00,22.6,22.0,00.0,31.4,24.5,17.2,-002.5,0020.28,0013.60,0013.35
2023-01-12 10:12:00,,0832.1,5.00,0.00,22.6,21.6,00.0,31.4,24.4,17.3,-002.5,0020.52,0013.75,0013.50
2023-01-12 10:13:00,,0832.1,5.00,0.00,22.6,21.3,00.0,31.4,24.3,17.3,-002.4,0020.69,0013.85,0013.59
2023-01-12 10:14:00,,0832.1,5.00,0.00,22.5,21.1,00.0,31.4,24.2,17.3,-002.3,0021.40,0013.96,0013.68
2023-01-12 10:15:00,,0832.2,4.99,0.00,22.5,20.9,00.0,31.4,24.2,17.4,-002.1,0021.62,0014.09,0013.80
2023-01-12 10:16:00,,0832.2,5.00,0.00,22.5,20.7,00.0,31.4,24.1,17.5,-002.1,0022.04,0014.33,0014.00
2023-01-12 10:17:00,,0832.3,4.99,0.00,22.4,20.5,00.0,31.4,24.0,17.6,-002.2,0022.28,0014.46,0014.11
2023-01-12 10:18:00,,0832.3,5.00,0.00,22.4,20.4,00.0,31.4,24.0,17.6,-002.1,0022.33,0014.51,0014.16
2023-01-12 10:19:00,,0832.3,5.01,0.00,22.3,20.3,00.0,31.3,23.9,17.7,-002.0,0022.45,0014.57,0014.20
2023-01-12 10:20:00,,0832.1,5.00,0.00,22.3,20.3,00.0,31.3,23.8,17.8,-002.0,0022.54,0014.63,0014.25
2023-01-12 10:21:00,,0832.1,4.99,0.00,22.2,20.2,00.0,31.3,23.8,17.8,-002.0,0022.69,0014.70,0014.29
2023-01-12 10:22:00,,0832.1,5.00,0.00,22.2,20.1,00.0,31.3,23.7,17.9,-002.1,0022.80,0014.71,0014.30
2023-01-12 10:23:00,,0832.1,5.01,0.00,22.2,20.1,00.0,31.2,23.7,17.9,-002.2,0022.64,0014.62,0014.23
2023-01-12 10:24:00,,0832.1,5.00,0.00,22.1,20.1,00.0,31.2,23.7,17.9,-002.2,0022.63,0014.56,0014.16
2023-01-12 10:25:00,,0832.1,4.99,0.00,22.1,20.0,00.0,31.2,23.6,17.9,-002.3,0022.08,0014.49,0014.08
2023-01-12 10:26:00,,0832.1,5.00,0.00,22.0,20.0,00.0,31.1,23.6,17.8,-002.3,0021.87,0014.37,0013.97
2023-01-12 10:27:00,,0832.1,5.00,0.00,22.0,20.1,00.0,31.1,23.7,17.7,-002.4,0021.65,0014.22,0013.82
2023-01-12 10:28:00,,0832.1,5.00,0.00,22.0,20.6,00.0,31.1,23.8,17.7,-002.4,0021.30,0014.03,0013.68
2023-01-12 10:29:00,,0832.1,5.00,0.00,22.1,21.7,00.0,31.0,24.0,17.6,-002.4,0021.03,0013.86,0013.51
2023-01-12 10:30:00,,0832.1,5.00,0.00,22.3,22.7,00.0,31.0,24.3,17.4,-002.4,0020.67,0013.65,0013.30
2023-01-12 10:31:00,,0832.0,5.00,0.00,22.4,22.8,00.0,31.1,24.4,17.3,-002.5,0020.62,0013.41,0013.05
2023-01-12 10:32:00,,0832.1,4.99,0.00,22.4,22.4,00.0,31.1,24.4,17.2,-002.6,0020.26,0013.10,0012.79
2023-01-12 10:33:00,,0832.1,4.99,0.00,22.4,22.1,00.0,31.1,24.3,17.1,-002.7,0019.82,0012.88,0012.58
2023-01-12 10:34:00,,0832.1,5.00,0.00,22.4,21.8,00.0,31.2,24.3,17.1,-002.7,0019.60,0012.72,0012.40
2023-01-12 10:35:00,,0832.1,5.00,0.00,22.4,21.5,00.0,31.2,24.3,17.0,-002.8,0019.28,0012.55,0012.26
2023-01-12 10:36:00,,0832.1,5.01,0.00,22.4,21.2,00.0,31.2,24.2,17.1,-002.8,0019.00,0012.38,0012.11
2023-01-12 10:37:00,,0832.1,5.00,0.00,22.4,21.1,00.0,31.2,24.2,17.1,-002.7,0018.79,0012.28,0012.01
2023-01-12 10:38:00,,0832.1,4.99,0.00,22.4,20.9,00.0,31.2,24.1,17.1,-002.7,0018.67,0012.21,0011.96
2023-01-12 10:39:00,,0832.1,5.00,0.00,22.4,20.9,00.0,31.2,24.1,17.2,-002.6,0018.63,0012.16,0011.90
2023-01-12 10:40:00,,0832.1,5.01,0.00,22.3,20.9,00.0,31.2,24.1,17.2,-002.6,0018.64,0012.13,0011.89
2023-01-12 10:41:00,,0832.1,5.01,0.00,22.3,20.9,00.0,31.2,24.1,17.3,-002.6,0018.62,0012.13,0011.90
2023-01-12 10:42:00,,0832.1,5.01,0.00,22.3,20.7,00.0,31.2,24.0,17.4,-002.7,0018.39,0012.21,0011.99
2023-01-12 10:43:00,,0832.1,5.00,0.00,22.3,20.7,00.0,31.2,23.9,17.4,-002.6,0018.58,0012.38,0012.15
2023-01-12 10:44:00,,0832.1,5.01,0.00,22.2,20.7,00.0,31.2,23.9,17.4,-002.5,0018.73,0012.46,0012.23
2023-01-12 10:45:00,,0832.1,5.00,0.00,22.2,20.8,00.0,31.2,24.0,17.4,-002.6,0018.74,0012.48,0012.28
2023-01-12 10:46:00,,0832.1,5.00,0.00,22.2,20.8,00.0,31.2,23.9,17.8,-002.4,0018.75,0012.49,0012.29
2023-01-12 10:47:00,,0832.1,5.00,0.00,22.2,20.8,00.0,31.2,23.9,18.0,-002.3,0018.86,0012.53,0012.32
2023-01-12 10:48:00,,0832.1,5.01,0.00,22.2,20.8,00.0,31.2,23.9,17.6,-002.4,0018.97,0012.58,0012.35
2023-01-12 10:49:00,,0832.1,5.00,0.00,22.2,20.6,00.0,31.2,23.9,17.5,-002.4,0018.98,0012.61,0012.39
2023-01-12 10:50:00,,0832.1,5.00,0.00,22.1,20.3,00.0,31.1,23.7,17.5,-002.5,0019.06,0012.63,0012.42
2023-01-12 10:51:00,,0832.1,5.02,0.00,22.1,20.2,00.0,31.1,23.6,17.6,-002.4,0019.00,0012.61,0012.42
2023-01-12 10:52:00,,0832.1,5.00,0.00,22.1,21.0,00.0,31.1,23.8,17.6,-002.5,0019.13,0012.67,0012.46
2023-01-12 10:53:00,,0832.1,5.00,0.00,22.2,22.1,00.0,31.0,24.1,17.5,-002.5,0019.21,0012.72,0012.50
2023-01-12 10:54:00,,0832.1,5.00,0.00,22.3,22.6,00.0,31.1,24.3,17.4,-002.5,0019.14,0012.70,0012.48
2023-01-12 10:55:00,,0832.1,4.99,0.00,22.4,22.1,00.0,31.1,24.2,17.4,-002.5,0019.17,0012.73,0012.50
2023-01-12 10:56:00,,0832.1,5.01,0.00,22.3,21.5,00.0,31.1,24.0,17.5,-002.3,0019.36,0012.83,0012.57
2023-01-12 10:57:00,,0832.1,5.01,0.00,22.3,21.1,00.0,31.1,23.9,17.5,-002.3,0019.41,0012.89,0012.63
2023-01-12 10:58:00,,0832.1,5.01,0.00,22.2,20.8,00.0,31.1,23.9,17.5,-002.3,0019.44,0012.95,0012.69
2023-01-12 10:59:00,,0832.1,5.00,0.00,22.2,20.6,00.0,31.1,23.8,17.5,-002.2,0019.41,0012.96,0012.73
